K3TXT-1 Weather Reports


time (UTC)temp
C
wind
direction
speed
KPH
gust
KPH
rain 1hr
cm
rain 24hr
cm
rain mn
cm
humidity
%
barometer
mb
20260510164757 25 185 0.0 6.4 0.00 0.00 0.00 63
20260510164557 25 195 1.6 6.4 0.00 0.00 0.00 65
20260510164357 25 148 1.6 6.4 0.00 0.00 0.00 64
20260510164158 25 81 1.6 6.4 0.00 0.00 0.00 65
20260510163959 25 39 1.6 4.8 0.00 0.00 0.00 64
20260510163758 25 16 1.6 4.8 0.00 0.00 0.00 64
20260510163558 25 339 0.0 4.8 0.00 0.00 0.00 66
20260510163357 25 109 1.6 3.2 0.00 0.00 0.00 65
20260510163157 25 103 0.0 3.2 0.00 0.00 0.00 64
20260510162958 25 299 0.0 3.2 0.00 0.00 0.00 64
20260510162758 25 77 0.0 3.2 0.00 0.00 0.00 64
20260510162557 25 128 0.0 4.8 0.00 0.00 0.00 66
20260510162357 25 95 0.0 4.8 0.00 0.00 0.00 67
20260510162157 25 97 0.0 4.8 0.00 0.00 0.00 66
20260510161958 25 81 0.0 4.8 0.00 0.00 0.00 66
20260510161557 25 62 0.0 3.2 0.00 0.00 0.00 68
20260510161157 25 52 0.0 3.2 0.00 0.00 0.00 69
20260510160757 25 52 0.0 4.8 0.00 0.00 0.00 67
20260510160358 25 52 1.6 4.8 0.00 0.00 0.00 67
20260510160157 25 46 1.6 4.8 0.00 0.00 0.00 66
20260510155958 25 16 1.6 4.8 0.00 0.00 0.00 65
20260510155557 25 66 0.0 4.8 0.00 0.00 0.00 67
20260510155358 25 62 1.6 4.8 0.00 0.00 0.00 67
20260510154959 25 56 1.6 4.8 0.00 0.00 0.00 67
20260510154758 24 67 1.6 4.8 0.00 0.00 0.00 68
20260510154558 24 55 0.0 4.8 0.00 0.00 0.00 69
20260510154358 24 34 0.0 3.2 0.00 0.00 0.00 69
20260510154157 24 34 0.0 3.2 0.00 0.00 0.00 70
20260510153757 24 354 0.0 3.2 0.00 0.00 0.00 70
20260510153358 23 354 0.0 1.6 0.00 0.00 0.00 70
20260510153158 23 354 0.0 1.6 0.00 0.00 0.00 71
20260510152557 23 324 0.0 6.4 0.00 0.00 0.00 71
20260510152157 23 68 3.2 6.4 0.00 0.00 0.00 72
20260510151958 23 29 3.2 4.8 0.00 0.00 0.00 73
20260510150958 23 29 3.2 4.8 0.00 0.00 0.00 71
20260510150757 23 27 3.2 4.8 0.00 0.00 0.00 72
20260510150558 23 27 3.2 4.8 0.00 0.00 0.00 72
20260510150357 22 18 1.6 4.8 0.00 0.00 0.00 69
20260510150157 22 4 0.0 4.8 0.00 0.00 0.00 68
20260510145959 22 4 0.0 6.4 0.00 0.00 0.00 70
20260510145800 22 4 0.0 6.4 0.00 0.00 0.00 70
20260510145557 22 4 1.6 6.4 0.00 0.00 0.00 71
20260510145000 22 35 1.6 6.4 0.00 0.00 0.00 68
20260510144759 22 21 1.6 6.4 0.00 0.00 0.00 68
20260510144559 22 21 3.2 6.4 0.00 0.00 0.00 68
20260510144358 22 40 1.6 4.8 0.00 0.00 0.00 69
20260510144158 22 39 1.6 4.8 0.00 0.00 0.00 71
20260510144004 22 38 1.6 4.8 0.00 0.00 0.00 68
20260510143759 21 36 3.2 4.8 0.00 0.00 0.00 69
20260510143559 21 37 1.6 4.8 0.00 0.00 0.00 73
20260510143359 21 35 1.6 4.8 0.00 0.00 0.00 70
20260510143158 21 35 1.6 4.8 0.00 0.00 0.00 69
20260510142959 21 34 0.0 4.8 0.00 0.00 0.00 69
20260510142758 21 34 0.0 4.8 0.00 0.00 0.00 70
20260510142558 21 33 1.6 4.8 0.00 0.00 0.00 69
20260510142358 21 46 0.0 4.8 0.00 0.00 0.00 70
20260510142159 20 46 3.2 4.8 0.00 0.00 0.00 70
20260510142001 20 56 1.6 4.8 0.00 0.00 0.00 70
20260510141759 20 29 1.6 4.8 0.00 0.00 0.00 72
20260510141559 20 58 0.0 4.8 0.00 0.00 0.00 72
20260510141359 20 56 0.0 4.8 0.00 0.00 0.00 72
20260510141158 20 56 1.6 6.4 0.00 0.00 0.00 72
20260510141000 20 59 3.2 6.4 0.00 0.00 0.00 72
20260510140159 20 19 1.6 4.8 0.00 0.00 0.00 73
20260510140000 20 13 1.6 4.8 0.00 0.00 0.00 73
20260510135558 20 359 1.6 6.4 0.00 0.00 0.00 75
20260510135358 20 359 3.2 6.4 0.00 0.00 0.00 74
20260510135005 19 343 4.8 6.4 0.00 0.00 0.00 74
20260510134758 19 359 3.2 6.4 0.00 0.00 0.00 77
20260510134600 19 4 3.2 6.4 0.00 0.00 0.00 76
20260510134358 18 8 3.2 6.4 0.00 0.00 0.00 79
20260510134159 18 8 1.6 6.4 0.00 0.00 0.00 78
20260510134000 18 4 3.2 4.8 0.00 0.00 0.00 79
20260510133359 18 311 0.0 3.2 0.00 0.00 0.00 79
20260510133158 18 310 0.0 3.2 0.00 0.00 0.00 80
20260510132757 18 311 0.0 4.8 0.00 0.00 0.00 80
20260510132159 18 311 1.6 4.8 0.00 0.00 0.00 81
20260510132000 18 311 1.6 4.8 0.00 0.00 0.00 81
20260510131758 18 309 0.0 4.8 0.00 0.00 0.00 81
20260510131559 17 311 0.0 4.8 0.00 0.00 0.00 82
20260510131359 17 312 1.6 4.8 0.00 0.00 0.00 81
20260510131159 17 304 0.0 4.8 0.00 0.00 0.00 83
20260510131001 17 303 0.0 4.8 0.00 0.00 0.00 83
20260510130757 17 302 0.0 4.8 0.00 0.00 0.00 84
20260510130559 17 303 1.6 4.8 0.00 0.00 0.00 85
20260510130358 17 312 0.0 3.2 0.00 0.00 0.00 85
20260510125959 17 316 0.0 4.8 0.00 0.00 0.00 84
20260510125757 17 315 1.6 4.8 0.00 0.00 0.00 85
20260510125558 17 315 0.0 4.8 0.00 0.00 0.00 86
20260510125356 17 315 1.6 4.8 0.00 0.00 0.00 86
20260510125158 17 315 0.0 3.2 0.00 0.00 0.00 86
20260510124958 17 315 0.0 4.8 0.00 0.00 0.00 87
20260510124757 16 316 0.0 4.8 0.00 0.00 0.00 87
20260510124558 16 315 1.6 4.8 0.00 0.00 0.00 87
20260510124358 16 315 0.0 4.8 0.00 0.00 0.00 88
20260510124157 16 316 1.6 4.8 0.00 0.00 0.00 90
20260510123958 16 320 0.0 4.8 0.00 0.00 0.00 90
20260510123558 16 330 1.6 6.4 0.00 0.00 0.00 90
20260510123359 16 330 1.6 6.4 0.00 0.00 0.00 90
20260510123157 15 327 3.2 6.4 0.00 0.00 0.00 91
20260510122959 15 4 3.2 6.4 0.00 0.00 0.00 92
20260510122758 15 14 1.6 6.4 0.00 0.00 0.00 92
20260510122357 15 17 4.8 8.0 0.00 0.00 0.00 93
20260510122158 15 359 1.6 8.0 0.00 0.00 0.00 94
20260510121959 15 354 4.8 8.0 0.00 0.00 0.00 94
20260510121758 14 346 3.2 6.4 0.00 0.00 0.00 94
20260510121557 14 339 0.0 6.4 0.00 0.00 0.00 94
20260510121357 14 330 1.6 6.4 0.00 0.00 0.00 95
20260510121157 14 330 3.2 6.4 0.00 0.00 0.00 95
20260510120958 14 335 1.6 4.8 0.00 0.00 0.00 95
20260510120757 13 359 1.6 4.8 0.00 0.00 0.00 95
20260510120558 13 359 3.2 4.8 0.00 0.00 0.00 95
20260510120356 13 359 3.2 4.8 0.00 0.00 0.00 96
20260510120157 13 354 1.6 4.8 0.00 0.00 0.00 96
20260510115757 13 354 1.6 4.8 0.00 0.00 0.00 96
20260510115556 13 354 0.0 4.8 0.00 0.00 0.00 96
20260510115356 13 354 1.6 4.8 0.00 0.00 0.00 97
20260510115156 13 354 1.6 4.8 0.00 0.00 0.00 96
20260510114959 13 354 0.0 4.8 0.00 0.00 0.00 97
20260510114558 13 354 0.0 4.8 0.00 0.00 0.00 97
20260510114357 13 354 0.0 6.4 0.00 0.00 0.00 97
20260510114158 13 354 0.0 6.4 0.00 0.00 0.00 97
20260510113959 13 354 0.0 6.4 0.00 0.00 0.00 97
20260510113758 13 354 1.6 6.4 0.00 0.00 0.00 97
20260510113557 12 354 1.6 6.4 0.00 0.00 0.00 97
20260510113358 12 354 1.6 4.8 0.00 0.00 0.00 97
20260510113157 12 354 3.2 6.4 0.00 0.00 0.00 97
20260510112959 12 354 1.6 6.4 0.00 0.00 0.00 97
20260510112757 12 354 0.0 6.4 0.00 0.00 0.00 97
20260510112358 12 359 3.2 6.4 0.00 0.00 0.00 98
20260510111959 12 339 1.6 6.4 0.00 0.00 0.00 98
20260510111758 12 334 3.2 6.4 0.00 0.00 0.00 98
20260510111557 12 302 3.2 6.4 0.00 0.00 0.00 98
20260510111357 12 301 1.6 4.8 0.00 0.00 0.00 98
20260510111157 12 301 1.6 3.2 0.00 0.00 0.00 98
20260510110958 12 300 0.0 3.2 0.00 0.00 0.00 97
20260510110758 12 300 1.6 3.2 0.00 0.00 0.00 97
20260510110559 11 301 0.0 3.2 0.00 0.00 0.00 97
20260510110357 11 301 0.0 3.2 0.00 0.00 0.00 97
20260510105558 11 301 0.0 0.0 0.00 0.00 0.00 96
20260510105358 11 301 0.0 0.0 0.00 0.00 0.00 96
20260510105159 11 300 0.0 0.0 0.00 0.00 0.00 96
20260510105006 11 301 0.0 0.0 0.00 0.00 0.00 96
20260510104758 11 300 0.0 0.0 0.00 0.00 0.00 96
20260510104558 11 301 0.0 0.0 0.00 0.00 0.00 96
20260510104358 11 301 0.0 0.0 0.00 0.00 0.00 96
20260510104159 11 301 0.0 0.0 0.00 0.00 0.00 96
20260510103959 11 301 0.0 1.6 0.00 0.00 0.00 96
20260510103759 11 300 0.0 3.2 0.00 0.00 0.00 96
20260510103558 11 300 0.0 3.2 0.00 0.00 0.00 96
20260510103359 11 301 0.0 3.2 0.00 0.00 0.00 96
20260510103159 11 301 0.0 3.2 0.00 0.00 0.00 96
20260510102959 11 300 1.6 3.2 0.00 0.00 0.00 96
20260510102758 11 301 0.0 0.0 0.00 0.00 0.00 96
20260510102557 11 301 0.0 1.6 0.00 0.00 0.00 96
20260510102359 11 300 0.0 1.6 0.00 0.00 0.00 96
20260510102159 11 301 0.0 1.6 0.00 0.00 0.00 96
20260510101758 11 300 0.0 1.6 0.00 0.00 0.00 96
20260510101558 11 300 0.0 1.6 0.00 0.00 0.00 96
20260510101358 11 301 0.0 1.6 0.00 0.00 0.00 96
20260510101000 11 300 0.0 1.6 0.00 0.00 0.00 95
20260510100758 11 300 0.0 1.6 0.00 0.00 0.00 95
20260510100358 11 300 0.0 0.0 0.00 0.00 0.00 95
20260510100158 11 300 0.0 0.0 0.00 0.00 0.00 95
20260510100005 11 301 0.0 0.0 0.00 0.00 0.00 95
20260510095556 11 300 0.0 0.0 0.00 0.00 0.00 95
20260510095157 11 301 0.0 0.0 0.00 0.00 0.00 95
20260510094959 11 301 0.0 0.0 0.00 0.00 0.00 95
20260510094757 11 301 0.0 0.0 0.00 0.00 0.00 95
20260510094557 11 300 0.0 0.0 0.00 0.00 0.00 95
20260510094357 11 300 0.0 0.0 0.00 0.00 0.00 95
20260510094157 11 300 0.0 0.0 0.00 0.00 0.00 95
20260510093958 11 301 0.0 0.0 0.00 0.00 0.00 95
20260510093558 11 300 0.0 1.6 0.00 0.00 0.00 95
20260510093357 11 300 0.0 1.6 0.00 0.00 0.00 95
20260510093158 12 300 0.0 1.6 0.00 0.00 0.00 95
20260510092757 12 300 0.0 1.6 0.00 0.00 0.00 95
20260510092356 12 301 0.0 1.6 0.00 0.00 0.00 95
20260510092157 12 301 0.0 0.0 0.00 0.00 0.00 95
20260510091757 12 300 0.0 0.0 0.00 0.00 0.00 95
20260510091557 12 301 0.0 0.0 0.00 0.00 0.00 95
20260510091357 12 300 0.0 1.6 0.00 0.00 0.00 96
20260510091157 12 301 0.0 1.6 0.00 0.00 0.00 96
20260510091003 12 301 0.0 1.6 0.00 0.00 0.00 96
20260510090757 12 301 0.0 1.6 0.00 0.00 0.00 96
20260510090556 12 301 0.0 1.6 0.00 0.00 0.00 96
20260510090358 12 301 0.0 1.6 0.00 0.00 0.00 96
20260510090157 12 301 0.0 3.2 0.00 0.00 0.00 96
20260510085758 12 300 0.0 4.8 0.00 0.00 0.00 96
20260510085359 12 301 1.6 4.8 0.00 0.00 0.00 96
20260510085159 12 299 1.6 4.8 0.00 0.00 0.00 96
20260510085001 12 299 1.6 4.8 0.00 0.00 0.00 96
20260510084757 12 226 3.2 3.2 0.00 0.00 0.00 96
20260510084559 12 224 1.6 3.2 0.00 0.00 0.00 96
20260510084359 12 220 0.0 3.2 0.00 0.00 0.00 96
20260510084159 12 219 1.6 3.2 0.00 0.00 0.00 95
20260510083959 12 211 0.0 3.2 0.00 0.00 0.00 95
20260510083558 12 172 0.0 1.6 0.00 0.00 0.00 95
20260510083359 12 171 0.0 1.6 0.00 0.00 0.00 95
20260510083158 12 171 0.0 1.6 0.00 0.00 0.00 95
20260510082758 12 172 0.0 0.0 0.00 0.00 0.00 94
20260510082558 12 172 0.0 0.0 0.00 0.00 0.00 94
20260510082400 12 172 0.0 0.0 0.00 0.00 0.00 94
20260510082159 12 172 0.0 0.0 0.00 0.00 0.00 94
20260510082000 12 172 0.0 0.0 0.00 0.00 0.00 94
20260510081800 12 172 0.0 1.6 0.00 0.00 0.00 94
20260510081558 12 172 0.0 1.6 0.00 0.00 0.00 94
20260510081358 12 172 0.0 1.6 0.00 0.00 0.00 94
20260510081158 12 172 0.0 1.6 0.00 0.00 0.00 94
20260510080959 12 172 0.0 1.6 0.00 0.00 0.00 94
20260510080758 12 172 0.0 1.6 0.00 0.00 0.00 94
20260510080558 12 172 0.0 1.6 0.00 0.00 0.00 94
20260510080358 12 172 0.0 1.6 0.00 0.00 0.00 94
20260510080159 12 172 0.0 1.6 0.00 0.00 0.00 94
20260510080002 12 172 0.0 1.6 0.00 0.00 0.00 95
20260510075357 12 172 0.0 1.6 0.00 0.00 0.00 95
20260510075157 12 172 0.0 1.6 0.00 0.00 0.00 95
20260510075000 12 172 0.0 1.6 0.00 0.00 0.00 95
20260510074758 12 172 0.0 1.6 0.00 0.00 0.00 94
20260510074557 12 172 0.0 1.6 0.00 0.00 0.00 94
20260510074357 12 171 0.0 0.0 0.00 0.00 0.00 94
20260510074157 12 172 0.0 0.0 0.00 0.00 0.00 94
20260510073959 12 172 0.0 0.0 0.00 0.00 0.00 94
20260510073558 12 172 0.0 0.0 0.00 0.00 0.00 94
20260510073356 12 172 0.0 0.0 0.00 0.00 0.00 94
20260510073158 12 172 0.0 0.0 0.00 0.00 0.00 94
20260510072958 12 172 0.0 0.0 0.00 0.00 0.00 94
20260510072757 12 171 0.0 0.0 0.00 0.00 0.00 94
20260510072557 12 172 0.0 0.0 0.00 0.00 0.00 94
20260510072357 12 172 0.0 0.0 0.00 0.00 0.00 94
20260510072158 12 171 0.0 0.0 0.00 0.00 0.00 94
20260510071958 12 172 0.0 0.0 0.00 0.00 0.00 94
20260510071756 12 172 0.0 0.0 0.00 0.00 0.00 94
20260510071556 12 172 0.0 1.6 0.00 0.00 0.00 94
20260510071356 12 172 0.0 1.6 0.00 0.00 0.00 94
20260510071157 12 172 0.0 1.6 0.00 0.00 0.00 94
20260510070958 12 172 0.0 1.6 0.00 0.00 0.00 94
20260510070757 13 172 0.0 1.6 0.00 0.00 0.00 94
20260510070557 13 172 0.0 1.6 0.00 0.00 0.00 94
20260510070357 13 172 0.0 1.6 0.00 0.00 0.00 94
20260510065757 13 172 0.0 0.0 0.00 0.00 0.00 94
20260510065556 13 172 0.0 0.0 0.00 0.00 0.00 94
20260510065358 13 172 0.0 0.0 0.00 0.00 0.00 94
20260510065157 13 172 0.0 0.0 0.00 0.00 0.00 94
20260510064958 13 172 0.0 0.0 0.00 0.00 0.00 94
20260510064757 13 172 0.0 0.0 0.00 0.00 0.00 94
20260510064558 13 172 0.0 0.0 0.00 0.00 0.00 94
20260510064157 13 172 0.0 0.0 0.00 0.00 0.00 94
20260510063959 13 172 0.0 1.6 0.00 0.00 0.00 94
20260510063757 13 172 0.0 3.2 0.00 0.00 0.00 94
20260510063357 13 171 0.0 3.2 0.00 0.00 0.00 94
20260510063157 13 172 0.0 3.2 0.00 0.00 0.00 94
20260510062957 13 172 0.0 0.0 0.00 0.00 0.00 94
20260510062756 13 171 0.0 0.0 0.00 0.00 0.00 93
20260510062356 13 172 0.0 0.0 0.00 0.00 0.00 93
20260510062158 13 172 0.0 0.0 0.00 0.00 0.00 94
20260510061958 13 172 0.0 0.0 0.00 0.00 0.00 93
20260510061757 13 172 0.0 0.0 0.00 0.00 0.00 94
20260510061557 13 172 0.0 1.6 0.00 0.00 0.00 94
20260510061357 13 172 0.0 1.6 0.00 0.00 0.00 94
20260510061157 13 172 0.0 3.2 0.00 0.00 0.00 93
20260510060958 13 172 0.0 3.2 0.00 0.00 0.00 93
20260510060758 13 172 0.0 3.2 0.00 0.00 0.00 93
20260510060358 13 172 1.6 3.2 0.00 0.00 0.00 93
20260510060158 13 171 0.0 1.6 0.00 0.00 0.00 93
20260510055958 13 171 0.0 1.6 0.00 0.00 0.00 93
20260510055757 13 171 0.0 1.6 0.00 0.00 0.00 93
20260510055557 13 170 0.0 0.0 0.00 0.00 0.00 93
20260510055357 13 171 0.0 0.0 0.00 0.00 0.00 93
20260510054957 13 170 0.0 0.0 0.00 0.00 0.00 93
20260510054556 13 171 0.0 0.0 0.00 0.00 0.00 93
20260510054157 13 171 0.0 0.0 0.00 0.00 0.00 93
20260510053959 13 170 0.0 0.0 0.00 0.00 0.00 93
20260510053758 13 171 0.0 0.0 0.00 0.00 0.00 93
20260510053358 13 171 0.0 0.0 0.00 0.00 0.00 93
20260510053157 13 171 0.0 0.0 0.00 0.00 0.00 92
20260510052557 14 171 0.0 0.0 0.00 0.00 0.00 92
20260510052356 14 171 0.0 0.0 0.00 0.00 0.00 92
20260510052156 14 170 0.0 0.0 0.00 0.00 0.00 92
20260510051958 14 171 0.0 0.0 0.00 0.00 0.00 92
20260510051757 14 171 0.0 0.0 0.00 0.00 0.00 92
20260510051558 14 170 0.0 0.0 0.00 0.00 0.00 92
20260510051357 14 171 0.0 0.0 0.00 0.00 0.00 92
20260510051156 14 171 0.0 0.0 0.00 0.00 0.00 92
20260510050959 14 171 0.0 0.0 0.00 0.00 0.00 92
20260510050757 14 171 0.0 0.0 0.00 0.00 0.00 92
20260510050557 14 171 0.0 0.0 0.00 0.00 0.00 92
20260510050357 14 171 0.0 0.0 0.00 0.00 0.00 91
20260510050005 14 171 0.0 0.0 0.00 0.00 0.00 91
20260510045759 14 171 0.0 1.6 0.00 0.00 0.00 92
20260510045558 14 170 0.0 1.6 0.00 0.00 0.00 91
20260510045358 14 171 0.0 1.6 0.00 0.00 0.00 91
20260510045158 14 171 0.0 1.6 0.00 0.00 0.00 91
20260510045000 14 170 0.0 0.0 0.00 0.00 0.00 91
20260510044757 15 171 0.0 0.0 0.00 0.00 0.00 91
20260510044558 15 171 0.0 0.0 0.00 0.00 0.00 91
20260510044358 15 171 0.0 0.0 0.00 0.00 0.00 91
20260510044159 15 170 0.0 0.0 0.00 0.00 0.00 91
20260510044004 15 170 0.0 0.0 0.00 0.00 0.00 91
20260510043558 15 171 0.0 1.6 0.00 0.00 0.00 91
20260510043357 15 171 0.0 1.6 0.00 0.00 0.00 91
20260510042959 15 171 0.0 1.6 0.00 0.00 0.00 90
20260510042758 15 171 0.0 1.6 0.00 0.00 0.00 90
20260510042558 15 171 0.0 0.0 0.00 0.00 0.00 90
20260510042359 15 171 0.0 0.0 0.00 0.00 0.00 90
20260510041759 15 171 0.0 0.0 0.00 0.00 0.00 90
20260510041558 15 171 0.0 0.0 0.00 0.00 0.00 90
20260510041358 15 171 0.0 0.0 0.00 0.00 0.00 90
20260510041159 15 172 0.0 0.0 0.00 0.00 0.00 89
20260510041000 15 171 0.0 0.0 0.00 0.00 0.00 89
20260510040758 15 171 0.0 0.0 0.00 0.00 0.00 89
20260510040557 15 171 0.0 0.0 0.00 0.00 0.00 88
20260510040359 15 170 0.0 0.0 0.00 0.00 0.00 88
20260510040158 15 171 0.0 0.0 0.00 0.00 0.00 89
20260510040004 15 171 0.0 0.0 0.00 0.00 0.00 88
20260510035757 15 170 0.0 0.0 0.00 0.00 0.00 88
20260510035559 15 170 0.0 0.0 0.00 0.00 0.00 88
20260510034758 15 171 0.0 0.0 0.00 0.00 0.00 87
20260510034557 15 171 0.0 0.0 0.00 0.00 0.00 86
20260510034358 15 170 0.0 0.0 0.00 0.00 0.00 86
20260510034158 15 171 0.0 0.0 0.00 0.00 0.00 86
20260510033959 15 170 0.0 0.0 0.00 0.00 0.00 86
20260510033758 15 171 0.0 0.0 0.00 0.00 0.00 86
20260510033357 16 170 0.0 0.0 0.00 0.00 0.00 86
20260510033158 16 171 0.0 0.0 0.00 0.00 0.00 86
20260510033002 16 170 0.0 0.0 0.00 0.00 0.00 86
20260510032758 16 171 0.0 0.0 0.00 0.00 0.00 86
20260510032558 16 171 0.0 0.0 0.00 0.00 0.00 85
20260510032359 16 171 0.0 0.0 0.00 0.00 0.00 85
20260510032158 16 171 0.0 0.0 0.00 0.00 0.00 85
20260510031558 16 171 0.0 0.0 0.00 0.00 0.00 85
20260510031358 16 171 0.0 0.0 0.00 0.00 0.00 85
20260510031158 16 171 0.0 0.0 0.00 0.00 0.00 85
20260510031000 16 170 0.0 0.0 0.00 0.00 0.00 85
20260510030758 16 171 0.0 0.0 0.00 0.00 0.00 85
20260510030359 16 171 0.0 0.0 0.00 0.00 0.00 85
20260510030158 16 171 0.0 0.0 0.00 0.00 0.00 85
20260510025957 16 171 0.0 0.0 0.00 0.00 0.00 85
20260510025757 16 170 0.0 0.0 0.00 0.00 0.00 85
20260510024958 16 171 0.0 0.0 0.00 0.00 0.00 85
20260510024557 16 171 0.0 0.0 0.00 0.00 0.00 86
20260510024357 16 171 0.0 0.0 0.00 0.00 0.00 86
20260510024157 16 171 0.0 0.0 0.00 0.00 0.00 86
20260510023958 16 170 0.0 0.0 0.00 0.00 0.00 86
20260510023757 16 171 0.0 0.0 0.00 0.00 0.00 86
20260510023557 16 171 0.0 0.0 0.00 0.00 0.00 86
20260510023156 16 171 0.0 1.6 0.00 0.00 0.00 87
20260510023006 16 171 0.0 1.6 0.00 0.00 0.00 87
20260510022757 17 171 0.0 1.6 0.00 0.00 0.00 87
20260510022558 17 170 0.0 0.0 0.00 0.00 0.00 87
20260510022357 17 171 0.0 1.6 0.00 0.00 0.00 87
20260510022157 17 171 0.0 1.6 0.00 0.00 0.00 87
20260510021757 17 171 0.0 1.6 0.00 0.00 0.00 86
20260510021557 17 171 0.0 1.6 0.00 0.00 0.00 86
20260510021401 17 171 0.0 1.6 0.00 0.00 0.00 86
20260510020959 17 171 0.0 0.0 0.00 0.00 0.00 85
20260510020757 17 171 0.0 0.0 0.00 0.00 0.00 85
20260510020556 17 171 0.0 0.0 0.00 0.00 0.00 85
20260510020357 17 171 0.0 0.0 0.00 0.00 0.00 85
20260510020157 17 171 0.0 0.0 0.00 0.00 0.00 85
20260510020002 17 171 0.0 0.0 0.00 0.00 0.00 85
20260510015758 17 171 0.0 0.0 0.00 0.00 0.00 85
20260510015559 17 171 0.0 0.0 0.00 0.00 0.00 84
20260510015358 17 171 0.0 0.0 0.00 0.00 0.00 84
20260510015157 17 171 0.0 0.0 0.00 0.00 0.00 84
20260510015000 17 171 0.0 0.0 0.00 0.00 0.00 84
20260510014758 17 170 0.0 0.0 0.00 0.00 0.00 84
20260510014558 17 170 0.0 0.0 0.00 0.00 0.00 84
20260510014358 17 170 0.0 0.0 0.00 0.00 0.00 84
20260510013959 17 171 0.0 0.0 0.00 0.00 0.00 84
20260510013758 17 171 0.0 0.0 0.00 0.00 0.00 84
20260510013558 17 171 0.0 0.0 0.00 0.00 0.00 84
20260510013357 17 171 0.0 0.0 0.00 0.00 0.00 84
20260510013158 17 170 0.0 0.0 0.00 0.00 0.00 84
20260510013000 17 170 0.0 0.0 0.00 0.00 0.00 84
20260510012759 17 171 0.0 0.0 0.00 0.00 0.00 84
20260510012558 17 171 0.0 0.0 0.00 0.00 0.00 84
20260510012357 17 170 0.0 0.0 0.00 0.00 0.00 84
20260510012159 17 171 0.0 0.0 0.00 0.00 0.00 84
20260510012001 17 170 0.0 0.0 0.00 0.00 0.00 84
20260510011758 17 171 0.0 0.0 0.00 0.00 0.00 83
20260510011558 17 171 0.0 0.0 0.00 0.00 0.00 83
20260510011357 17 170 0.0 0.0 0.00 0.00 0.00 83
20260510011159 17 170 0.0 0.0 0.00 0.00 0.00 82
20260510011000 17 170 0.0 0.0 0.00 0.00 0.00 81
20260510010758 17 170 0.0 0.0 0.00 0.00 0.00 81
20260510010600 17 171 0.0 0.0 0.00 0.00 0.00 81
20260510010358 17 171 0.0 0.0 0.00 0.00 0.00 81
20260510010159 17 171 0.0 0.0 0.00 0.00 0.00 81
20260510010005 17 170 0.0 0.0 0.00 0.00 0.00 81
20260510005759 17 170 0.0 0.0 0.00 0.00 0.00 81
20260510005558 17 170 0.0 0.0 0.00 0.00 0.00 81
20260510005359 17 170 0.0 0.0 0.00 0.00 0.00 81
20260510004757 18 171 0.0 0.0 0.00 0.00 0.00 81
20260510004559 18 171 0.0 0.0 0.00 0.00 0.00 80
20260510004358 18 171 0.0 0.0 0.00 0.00 0.00 80
20260510003958 18 171 0.0 0.0 0.00 0.00 0.00 80
20260510003757 18 171 0.0 0.0 0.00 0.00 0.00 80
20260510003558 18 170 0.0 0.0 0.00 0.00 0.00 80
20260510003358 18 171 0.0 0.0 0.00 0.00 0.00 80
20260510003158 18 171 0.0 0.0 0.00 0.00 0.00 79
20260510003000 18 171 0.0 0.0 0.00 0.00 0.00 79
20260510002758 18 170 0.0 0.0 0.00 0.00 0.00 79
20260510002559 18 171 0.0 0.0 0.00 0.00 0.00 78
20260510002359 18 171 0.0 0.0 0.00 0.00 0.00 78
20260510001758 18 171 0.0 1.6 0.00 0.00 0.00 77
20260510001557 18 171 0.0 1.6 0.00 0.00 0.00 77
20260510001357 18 171 0.0 1.6 0.00 0.00 0.00 77
20260510001158 19 170 0.0 1.6 0.00 0.00 0.00 76
20260510000758 19 170 0.0 0.0 0.00 0.00 0.00 75
20260510000558 19 171 0.0 0.0 0.00 0.00 0.00 75
20260510000359 19 171 0.0 0.0 0.00 0.00 0.00 74
20260510000157 19 171 0.0 0.0 0.00 0.00 0.00 73
20260510000002 19 170 0.0 0.0 0.00 0.00 0.00 73
20260509235757 19 170 0.0 0.0 0.00 0.00 0.00 72
20260509235558 19 171 0.0 0.0 0.00 0.00 0.00 72
20260509235358 19 171 0.0 0.0 0.00 0.00 0.00 72
20260509235158 19 171 0.0 0.0 0.00 0.00 0.00 71
20260509234959 19 171 0.0 0.0 0.00 0.00 0.00 71
20260509234758 20 171 0.0 1.6 0.00 0.00 0.00 71
20260509234358 20 171 0.0 1.6 0.00 0.00 0.00 71
20260509234159 20 171 0.0 1.6 0.00 0.00 0.00 71
20260509234004 20 170 0.0 1.6 0.00 0.00 0.00 70
20260509233757 20 171 0.0 6.4 0.00 0.00 0.00 70
20260509233600 20 171 0.0 8.0 0.00 0.00 0.00 70
20260509233358 20 170 0.0 8.0 0.00 0.00 0.00 70
20260509233159 20 171 0.0 8.0 0.00 0.00 0.00 69
20260509232757 20 121 1.6 4.8 0.00 0.00 0.00 69
20260509232557 20 106 0.0 4.8 0.00 0.00 0.00 69
20260509232358 20 106 1.6 8.0 0.00 0.00 0.00 69
20260509232158 20 182 1.6 8.0 0.00 0.00 0.00 68
20260509231758 20 187 3.2 8.0 0.00 0.00 0.00 68
20260509231358 20 166 3.2 8.0 0.00 0.00 0.00 67
20260509231157 20 134 1.6 8.0 0.00 0.00 0.00 67
20260509230559 21 147 0.0 3.2 0.00 0.00 0.00 68
20260509230359 21 147 0.0 3.2 0.00 0.00 0.00 68
20260509230158 21 147 0.0 4.8 0.00 0.00 0.00 68
20260509225959 21 147 0.0 4.8 0.00 0.00 0.00 67
20260509225800 21 137 0.0 4.8 0.00 0.00 0.00 67
20260509225557 21 135 1.6 9.7 0.00 0.00 0.00 67
20260509225358 21 136 1.6 9.7 0.00 0.00 0.00 67
20260509224959 21 170 0.0 9.7 0.00 0.00 0.00 67
20260509224758 21 170 3.2 9.7 0.00 0.00 0.00 67
20260509224358 21 169 0.0 8.0 0.00 0.00 0.00 67
20260509224158 21 169 0.0 8.0 0.00 0.00 0.00 66
20260509223959 21 169 1.6 8.0 0.00 0.00 0.00 66
20260509223758 21 169 4.8 9.7 0.00 0.00 0.00 65
20260509223557 21 181 1.6 9.7 0.00 0.00 0.00 66
20260509223358 21 186 1.6 9.7 0.00 0.00 0.00 66
20260509223158 21 173 3.2 9.7 0.00 0.00 0.00 66
20260509222959 21 146 3.2 6.4 0.00 0.00 0.00 65
20260509222757 21 204 1.6 8.0 0.00 0.00 0.00 66
20260509222559 21 204 1.6 8.0 0.00 0.00 0.00 65
20260509222359 21 229 1.6 8.0 0.00 0.00 0.00 66
20260509222157 21 165 3.2 8.0 0.00 0.00 0.00 66
20260509222000 21 166 3.2 6.4 0.00 0.00 0.00 67
20260509221800 21 217 1.6 4.8 0.00 0.00 0.00 67
20260509221558 21 170 0.0 6.4 0.00 0.00 0.00 67
20260509221159 21 170 0.0 6.4 0.00 0.00 0.00 67
20260509221000 21 170 0.0 6.4 0.00 0.00 0.00 67
20260509220757 21 170 3.2 6.4 0.00 0.00 0.00 66
20260509220557 21 179 0.0 4.8 0.00 0.00 0.00 67
20260509220358 21 183 1.6 6.4 0.00 0.00 0.00 67
20260509220157 21 195 0.0 6.4 0.00 0.00 0.00 66
20260509215556 22 100 0.0 3.2 0.00 0.00 0.00 67
20260509215356 22 101 0.0 3.2 0.00 0.00 0.00 66
20260509215157 22 101 1.6 3.2 0.00 0.00 0.00 66
20260509214958 22 90 1.6 3.2 0.00 0.00 0.00 66
20260509214357 22 48 1.6 3.2 0.00 0.00 0.00 66
20260509214157 22 48 0.0 1.6 0.00 0.00 0.00 66
20260509213958 22 47 0.0 3.2 0.00 0.00 0.00 65
20260509213758 22 47 0.0 4.8 0.00 0.00 0.00 66
20260509213556 22 48 0.0 4.8 0.00 0.00 0.00 66
20260509213358 22 47 0.0 6.4 0.00 0.00 0.00 66
20260509213000 22 48 0.0 6.4 0.00 0.00 0.00 67
20260509212600 22 40 1.6 6.4 0.00 0.00 0.00 68
20260509212357 22 45 1.6 6.4 0.00 0.00 0.00 67
20260509212156 22 59 0.0 6.4 0.00 0.00 0.00 67
20260509211958 22 59 0.0 6.4 0.00 0.00 0.00 67
20260509211757 22 59 1.6 6.4 0.00 0.00 0.00 67
20260509211557 22 36 1.6 4.8 0.00 0.00 0.00 67
20260509211357 22 50 0.0 1.6 0.00 0.00 0.00 67
20260509211157 22 50 0.0 4.8 0.00 0.00 0.00 65
20260509210757 22 74 0.0 4.8 0.00 0.00 0.00 66
20260509210558 22 75 0.0 4.8 0.00 0.00 0.00 66
20260509210357 22 74 0.0 4.8 0.00 0.00 0.00 65
20260509210158 22 90 0.0 3.2 0.00 0.00 0.00 64
20260509205958 22 102 0.0 3.2 0.00 0.00 0.00 65
20260509205557 22 109 0.0 3.2 0.00 0.00 0.00 65
20260509205357 22 50 1.6 3.2 0.00 0.00 0.00 66
20260509205157 22 34 0.0 3.2 0.00 0.00 0.00 67
20260509204959 22 34 1.6 4.8 0.00 0.00 0.00 69
20260509204757 22 35 0.0 4.8 0.00 0.00 0.00 69
20260509204556 22 34 0.0 4.8 0.00 0.00 0.00 68
20260509204358 22 34 1.6 4.8 0.00 0.00 0.00 69
20260509204157 22 47 1.6 4.8 0.00 0.00 0.00 70
20260509203755 22 37 0.0 3.2 0.00 0.00 0.00 68
20260509203557 22 70 0.0 1.6 0.00 0.00 0.00 69
20260509203357 22 76 0.0 4.8 0.00 0.00 0.00 69
20260509203156 22 75 0.0 4.8 0.00 0.00 0.00 69
20260509202959 22 77 0.0 4.8 0.00 0.00 0.00 68
20260509202757 22 79 0.0 4.8 0.00 0.00 0.00 68
20260509202557 22 79 0.0 4.8 0.00 0.00 0.00 69
20260509202358 21 20 0.0 4.8 0.00 0.00 0.00 70
20260509202157 21 21 1.6 4.8 0.00 0.00 0.00 70
20260509201958 21 15 1.6 3.2 0.00 0.00 0.00 69
20260509201757 21 10 0.0 1.6 0.00 0.00 0.00 69
20260509201556 21 8 0.0 1.6 0.00 0.00 0.00 69
20260509201357 21 8 0.0 1.6 0.00 0.00 0.00 69
20260509201156 21 8 0.0 1.6 0.00 0.00 0.00 69
20260509200958 21 8 0.0 1.6 0.00 0.00 0.00 68
20260509200758 21 4 0.0 1.6 0.00 0.00 0.00 71
20260509200557 21 8 0.0 1.6 0.00 0.00 0.00 70
20260509195758 21 4 0.0 3.2 0.00 0.00 0.00 73
20260509195557 21 4 0.0 4.8 0.00 0.00 0.00 72
20260509195358 21 8 0.0 4.8 0.00 0.00 0.00 72
20260509195157 21 4 0.0 4.8 0.00 0.00 0.00 72
20260509195000 21 4 1.6 4.8 0.00 0.00 0.00 72
20260509194758 21 4 3.2 4.8 0.00 0.00 0.00 72
20260509194559 21 4 1.6 3.2 0.00 0.00 0.00 73
20260509194359 21 8 1.6 4.8 0.00 0.00 0.00 73
20260509194157 21 8 1.6 4.8 0.00 0.00 0.00 72
20260509193959 21 8 1.6 4.8 0.00 0.00 0.00 74
20260509193758 21 4 1.6 4.8 0.00 0.00 0.00 71
20260509193602 21 8 1.6 4.8 0.00 0.00 0.00 71
20260509193158 21 4 1.6 3.2 0.00 0.00 0.00 72
20260509193000 21 4 0.0 6.4 0.00 0.00 0.00 71
20260509192758 21 4 0.0 6.4 0.00 0.00 0.00 73
20260509192557 21 8 1.6 6.4 0.00 0.00 0.00 74
20260509192358 21 4 3.2 6.4 0.00 0.00 0.00 73
20260509192158 21 53 1.6 3.2 0.00 0.00 0.00 74
20260509192000 21 100 0.0 1.6 0.00 0.00 0.00 74
20260509191758 20 100 0.0 4.8 0.00 0.00 0.00 73
20260509191558 20 29 0.0 4.8 0.00 0.00 0.00 73
20260509191357 20 29 0.0 4.8 0.00 0.00 0.00 71
20260509191158 20 29 0.0 4.8 0.00 0.00 0.00 70
20260509190158 21 336 3.2 4.8 0.00 0.00 0.00 69
20260509190004 21 249 0.0 3.2 0.00 0.00 0.00 68
20260509185758 21 250 0.0 6.4 0.00 0.00 0.00 66
20260509185357 21 249 1.6 9.7 0.00 0.00 0.00 65
20260509185158 21 242 0.0 9.7 0.00 0.00 0.00 65
20260509185000 21 242 1.6 9.7 0.00 0.00 0.00 64
20260509184759 21 238 4.8 11.3 0.00 0.00 0.00 63
20260509184559 21 236 4.8 16.1 0.00 0.00 0.00 63
20260509184358 21 224 3.2 16.1 0.00 0.00 0.00 63
20260509184158 21 224 4.8 16.1 0.00 0.00 0.00 62
20260509183758 22 229 3.2 16.1 0.00 0.00 0.00 59
20260509183559 22 183 3.2 8.0 0.00 0.00 0.00 59
20260509183358 22 239 3.2 11.3 0.00 0.00 0.00 60
20260509183159 22 235 3.2 11.3 0.00 0.00 0.00 59
20260509182759 22 245 6.4 11.3 0.00 0.00 0.00 57
20260509182558 22 231 4.8 11.3 0.00 0.00 0.00 56
20260509182359 22 243 3.2 11.3 0.00 0.00 0.00 55
20260509181958 22 241 3.2 9.7 0.00 0.00 0.00 56
20260509181758 22 225 4.8 9.7 0.00 0.00 0.00 56
20260509181558 22 228 3.2 14.5 0.00 0.00 0.00 57
20260509181358 22 110 4.8 14.5 0.00 0.00 0.00 57
20260509180759 22 187 3.2 16.1 0.00 0.00 0.00 55
20260509180558 22 229 6.4 16.1 0.00 0.00 0.00 55
20260509180403 22 246 4.8 14.5 0.00 0.00 0.00 55
20260509180158 22 247 4.8 14.5 0.00 0.00 0.00 56
20260509180005 22 244 8.0 14.5 0.00 0.00 0.00 55
20260509175759 22 222 6.4 14.5 0.00 0.00 0.00 55
20260509175558 22 234 4.8 14.5 0.00 0.00 0.00 55
20260509175357 22 235 4.8 16.1 0.00 0.00 0.00 56
20260509175158 22 241 1.6 16.1 0.00 0.00 0.00 56
20260509175000 22 227 4.8 16.1 0.00 0.00 0.00 56
20260509174757 22 241 6.4 16.1 0.00 0.00 0.00 54
20260509174559 22 237 4.8 16.1 0.00 0.00 0.00 54
20260509173958 22 221 6.4 12.9 0.00 0.00 0.00 54
20260509173602 22 249 4.8 12.9 0.00 0.00 0.00 53
20260509173357 22 202 6.4 11.3 0.00 0.00 0.00 53
20260509173158 22 247 4.8 11.3 0.00 0.00 0.00 53
20260509172959 22 240 4.8 16.1 0.00 0.00 0.00 53
20260509172759 22 237 1.6 16.1 0.00 0.00 0.00 54
20260509172558 22 225 3.2 16.1 0.00 0.00 0.00 53
20260509172357 22 252 4.8 16.1 0.00 0.00 0.00 53
20260509172157 22 171 6.4 16.1 0.00 0.00 0.00 54
20260509172000 22 243 4.8 16.1 0.00 0.00 0.00 53
20260509171559 22 194 4.8 14.5 0.00 0.00 0.00 53
20260509171200 22 251 8.0 17.7 0.00 0.00 0.00 53
20260509170758 22 222 4.8 20.9 0.00 0.00 0.00 53
20260509170559 22 161 6.4 20.9 0.00 0.00 0.00 54
20260509170158 22 248 6.4 20.9 0.00 0.00 0.00 54
20260509170002 22 241 6.4 20.9 0.00 0.00 0.00 54
20260509165757 22 308 6.4 20.9 0.00 0.00 0.00 53
20260509165402 22 245 8.0 20.9 0.00 0.00 0.00 52
20260509165158 22 237 8.0 19.3 0.00 0.00 0.00 54
20260509165000 22 221 8.0 19.3 0.00 0.00 0.00 52